Location: Kawakawa
(35.3830°S, 174.0670°E)
Time: 21:49:08
(UTC+13:00)

A-11 Canister half - Visible Passes

Search period start: 06 December 2019 00:00
Search period end: 16 December 2019 00:00
Orbit: 1526 x 1683 km, 47.3° (Epoch: 05 December)

Date Brightness Start Highest point End Pass type
(mag) Time Alt. Az. Time Alt. Az. Time Alt. Az.
06 Dec 9.8 01:01:55 10° WSW 01:11:00 47° SSE 01:20:19 10° E visible
06 Dec 8.9 03:07:09 10° WSW 03:16:46 83° NW 03:26:41 10° NE visible
06 Dec 9.8 05:13:39 10° WSW 05:20:55 24° NW 05:28:20 10° N visible
06 Dec 10.1 22:33:35 10° W 22:42:22 43° S 22:51:19 10° ESE visible
07 Dec 9.8 00:40:16 10° WSW 00:49:18 46° SSE 00:58:32 10° E visible
07 Dec 8.9 02:45:31 10° SW 02:55:08 86° NW 03:05:02 10° NE visible
07 Dec 9.8 04:51:50 10° WSW 04:59:20 26° NW 05:06:59 10° N visible
07 Dec 10.1 22:11:52 10° W 22:20:39 43° SSW 22:29:36 10° ESE visible
08 Dec 9.9 00:18:36 10° WSW 00:27:36 45° SSE 00:36:46 10° E visible
08 Dec 8.9 02:23:53 10° SW 02:33:29 89° NW 02:43:22 10° NE visible
08 Dec 9.7 04:30:03 10° WSW 04:37:45 28° NW 04:45:38 10° N visible
08 Dec 10.1 21:50:08 10° W 21:58:57 44° SSW 22:07:55 10° ESE visible
08 Dec 9.9 23:56:57 10° WSW 00:05:53 44° SSE 00:15:00 10° E visible
09 Dec 8.9 02:02:16 10° SW 02:11:51 88° SE 02:21:42 10° NE visible
09 Dec 9.6 04:08:16 10° WSW 04:16:10 29° NW 04:24:14 10° N visible
09 Dec 10.1 21:28:24 10° W 21:37:14 44° SSW 21:46:13 10° ESE visible
09 Dec 9.9 23:35:17 10° WSW 23:44:10 44° SSE 23:53:13 10° E visible
10 Dec 8.9 01:40:39 10° SW 01:50:12 85° SE 01:58:54 14° ENE visible
10 Dec 9.6 03:46:32 10° WSW 03:54:35 31° NW 04:02:50 10° N visible
10 Dec 10.1 21:06:41 10° W 21:15:32 45° SSW 21:24:32 10° ESE visible
10 Dec 9.9 23:13:37 10° WSW 23:22:28 43° S 23:31:28 10° E visible
11 Dec 9.0 01:19:01 10° SW 01:28:33 82° SSE 01:34:06 30° ENE visible
11 Dec 9.6 03:24:47 10° WSW 03:32:12 33° WNW 03:32:12 33° WNW visible
11 Dec 10.1 20:44:56 10° W 20:53:51 46° SSW 21:02:51 10° ESE visible
11 Dec 10.0 22:51:57 10° WSW 23:00:45 42° S 23:09:42 10° E visible
12 Dec 9.0 00:57:24 10° SW 01:06:54 79° SSE 01:11:38 36° ENE visible
12 Dec 9.6 03:03:03 10° WSW 03:09:49 33° WNW 03:09:49 33° WNW visible
12 Dec 10.0 22:30:16 10° WSW 22:39:02 42° S 22:47:57 10° ESE visible
13 Dec 9.0 00:35:47 10° SW 00:45:15 76° SSE 00:49:47 37° ENE visible
13 Dec 9.6 02:41:21 10° WSW 02:47:59 35° WNW 02:47:59 35° WNW visible
13 Dec 10.0 22:08:34 10° WSW 22:17:19 41° S 22:26:11 10° ESE visible
14 Dec 9.1 00:14:09 10° SW 00:23:36 73° SSE 00:28:14 35° ENE visible
14 Dec 9.6 02:19:39 10° WSW 02:26:27 37° WNW 02:26:27 37° WNW visible
14 Dec 10.0 21:46:53 10° WSW 21:55:36 41° S 22:04:26 10° ESE visible
14 Dec 9.1 23:52:31 10° SW 00:01:57 71° SSE 00:06:53 33° ENE visible
15 Dec 9.5 01:57:57 10° WSW 02:05:07 39° WNW 02:05:07 39° WNW visible
15 Dec 10.1 21:25:11 10° WSW 21:33:53 40° S 21:42:41 10° ESE visible
15 Dec 9.2 23:30:54 10° SW 23:40:18 68° SSE 23:45:40 30° ENE visible
